User: anonymous   Login
Location: Unspecified
(44.4377°N, 88.0525°W)
Time: 01:37:18
(UTC-06:00)
Language:

Okean 3 - Orbit

View from above orbital plane
View from above orbital plane
View from above satellite
View from above satellite

Ground track
Ground track

The orbit data is extracted from the following two-line orbital elements,

1 21397U 91039A   18319.58429451 +.00000243 +00000-0 +20961-4 0  9995
2 21397 082.5231 007.7986 0016651 313.3856 046.5977 14.92733795465755
Epoch (UTC): 15 November 2018 14:01:23
Eccentricity: 0.0016651
inclination: 82.5231°
perigee height: 578 km
apogee height: 601 km
right ascension of ascending node: 7.7986°
argument of perigee: 313.3856°
revolutions per day: 14.92733795
mean anomaly at epoch: 46.5977°
orbit number at epoch: 46575

The dashed part of the orbit path shows where the satellite is in the earth's shadow,  

DLR